Location: Arcones
(41.1182°N, 3.7238°W)
Time: 20:24:44
(UTC+00:00)

YAOGAN 1 - Pass Details

Date: 14 March 2026
Orbit: 604 x 606 km, 97.8° (Epoch: 21 April)

Event Time Altitude Azimuth Distance (km) Brightness Sun altitude
Rises 19:15:26 0° 187° (S) 2,848 6.0 -11.2°
Reaches altitude 10° 19:17:45 10° 196° (SSW) 1,950 5.2 -11.6°
Maximum altitude 19:21:38 35° 263° (W) 992 4.3 -12.3°
Drops below altitude 10° 19:25:33 10° 329° (NNW) 1,964 5.7 -13.1°
Sets 19:27:53 0° 339° (NNW) 2,872 6.4 -13.5°
